User: anonymous   Login
Location: Unspecified
(48.7670°N, 0.0000°E)
Time: 13:30:02
(UTC+00:00)
Language:

DELFI C3 - Orbit

View from above orbital plane
View from above orbital plane
View from above satellite
View from above satellite

Ground track
Ground track

The orbit data is extracted from the following two-line orbital elements,

1 32789U 08021G   19198.70123547  .00000716  00000-0  51812-4 0  9992
2 32789  97.4622 247.4888 0012981  33.5062 326.6984 15.07001058611331
Epoch (UTC): 17 July 2019 16:49:46
Eccentricity: 0.0012981
inclination: 97.4622°
perigee height: 536 km
apogee height: 554 km
right ascension of ascending node: 247.4888°
argument of perigee: 33.5062°
revolutions per day: 15.07001058
mean anomaly at epoch: 326.6984°
orbit number at epoch: 61133

The dashed part of the orbit path shows where the satellite is in the earth's shadow,  

DLR